Data supplied by UK-AIR on 29/3/2019
All Data GMT hour ending 
Status: R =Ratified P=Provisional,P*=As supplied
,,St Osyth,,,,,,,,,,,,,,,,,,,,,,,
Date,time,"Nitric oxide",status,unit,"Nitrogen dioxide",status,unit,"Nitrogen oxides as nitrogen dioxide",status,unit,"Ozone",status,unit
 
01-01-2018,01:00,0.12540,R,ugm-3,4.99127,R,ugm-3,5.18355,R,ugm-3,77.36664,R,ugm-3
01-01-2018,02:00,0.20900,R,ugm-3,8.19080,R,ugm-3,8.51125,R,ugm-3,70.78083,R,ugm-3
01-01-2018,03:00,0.21945,R,ugm-3,7.58283,R,ugm-3,7.91931,R,ugm-3,68.80176,R,ugm-3
01-01-2018,04:00,0.15675,R,ugm-3,7.96694,R,ugm-3,8.20728,R,ugm-3,66.20735,R,ugm-3
01-01-2018,05:00,0.12540,R,ugm-3,6.33515,R,ugm-3,6.52743,R,ugm-3,70.59789,R,ugm-3
01-01-2018,06:00,0.03135,R,ugm-3,5.13548,R,ugm-3,5.18355,R,ugm-3,72.59359,R,ugm-3
01-01-2018,07:00,0.00000,R,ugm-3,4.75158,R,ugm-3,4.75158,R,ugm-3,70.99703,R,ugm-3
01-01-2018,08:00,0.00000,R,ugm-3,4.70359,R,ugm-3,4.70359,R,ugm-3,67.95359,R,ugm-3
01-01-2018,09:00,0.00000,R,ugm-3,5.99947,R,ugm-3,5.99947,R,ugm-3,66.80606,R,ugm-3
01-01-2018,10:00,0.28215,R,ugm-3,6.43078,R,ugm-3,6.86340,R,ugm-3,67.70412,R,ugm-3
01-01-2018,11:00,0.59564,R,ugm-3,5.90210,R,ugm-3,6.81540,R,ugm-3,67.20520,R,ugm-3
01-01-2018,12:00,0.94049,R,ugm-3,6.38125,R,ugm-3,7.82332,R,ugm-3,69.45036,R,ugm-3
01-01-2018,13:00,0.81509,R,ugm-3,5.75760,R,ugm-3,7.00739,R,ugm-3,75.33768,R,ugm-3
01-01-2018,14:00,0.65834,R,ugm-3,3.88613,R,ugm-3,4.89557,R,ugm-3,78.68047,R,ugm-3
01-01-2018,15:00,0.59564,R,ugm-3,4.51022,R,ugm-3,5.42353,R,ugm-3,77.73252,R,ugm-3
01-01-2018,16:00,0.65834,R,ugm-3,6.76588,R,ugm-3,7.77532,R,ugm-3,72.84305,R,ugm-3
01-01-2018,17:00,0.47025,R,ugm-3,6.57433,R,ugm-3,7.29536,R,ugm-3,68.35273,R,ugm-3
01-01-2018,18:00,0.47025,R,ugm-3,9.45408,R,ugm-3,10.17511,R,ugm-3,57.92519,R,ugm-3
01-01-2018,19:00,0.72104,R,ugm-3,9.88546,R,ugm-3,10.99104,R,ugm-3,55.18111,R,ugm-3
01-01-2018,20:00,0.75239,R,ugm-3,11.46925,R,ugm-3,12.62289,R,ugm-3,56.57810,R,ugm-3
01-01-2018,21:00,0.56429,R,ugm-3,7.87000,R,ugm-3,8.73524,R,ugm-3,65.50885,R,ugm-3
01-01-2018,22:00,0.21945,R,ugm-3,4.79907,R,ugm-3,5.13555,R,ugm-3,70.09896,R,ugm-3
01-01-2018,23:00,0.06270,R,ugm-3,3.83952,R,ugm-3,3.93566,R,ugm-3,72.39402,R,ugm-3
01-01-2018,24:00,0.00000,R,ugm-3,3.11973,R,ugm-3,3.11973,R,ugm-3,74.88864,R,ugm-3
02-01-2018,01:00,0.08361,R,ugm-3,3.32787,R,ugm-3,3.45607,R,ugm-3,73.37524,R,ugm-3
02-01-2018,02:00,0.12541,R,ugm-3,4.86380,R,ugm-3,5.05610,R,ugm-3,68.11989,R,ugm-3
02-01-2018,03:00,0.21947,R,ugm-3,4.36758,R,ugm-3,4.70409,R,ugm-3,65.95789,R,ugm-3
02-01-2018,04:00,0.34488,R,ugm-3,4.41529,R,ugm-3,4.94409,R,ugm-3,64.66068,R,ugm-3
02-01-2018,05:00,0.43894,R,ugm-3,4.89508,R,ugm-3,5.56811,R,ugm-3,61.96649,R,ugm-3
02-01-2018,06:00,0.53300,R,ugm-3,5.85488,R,ugm-3,6.67213,R,ugm-3,58.87315,R,ugm-3
02-01-2018,07:00,0.65841,R,ugm-3,6.38260,R,ugm-3,7.39214,R,ugm-3,56.52820,R,ugm-3
02-01-2018,08:00,0.59570,R,ugm-3,11.03883,R,ugm-3,11.95223,R,ugm-3,50.69078,R,ugm-3
02-01-2018,09:00,0.62705,R,ugm-3,20.73495,R,ugm-3,21.69641,R,ugm-3,40.91185,R,ugm-3
02-01-2018,10:00,0.59570,R,ugm-3,17.47096,R,ugm-3,18.38435,R,ugm-3,45.10282,R,ugm-3
02-01-2018,11:00,0.68976,R,ugm-3,15.21470,R,ugm-3,16.27231,R,ugm-3,49.04433,R,ugm-3
02-01-2018,12:00,1.00329,R,ugm-3,11.80591,R,ugm-3,13.34426,R,ugm-3,56.12906,R,ugm-3
02-01-2018,13:00,0.84652,R,ugm-3,9.98223,R,ugm-3,11.28022,R,ugm-3,60.46971,R,ugm-3
02-01-2018,14:00,1.16005,R,ugm-3,15.59762,R,ugm-3,17.37633,R,ugm-3,56.22885,R,ugm-3
02-01-2018,15:00,0.78382,R,ugm-3,8.63835,R,ugm-3,9.84019,R,ugm-3,63.21380,R,ugm-3
02-01-2018,16:00,0.62705,R,ugm-3,7.19869,R,ugm-3,8.16016,R,ugm-3,64.41122,R,ugm-3
02-01-2018,17:00,0.21947,R,ugm-3,9.21567,R,ugm-3,9.55218,R,ugm-3,60.66928,R,ugm-3
02-01-2018,18:00,0.25082,R,ugm-3,16.51174,R,ugm-3,16.89632,R,ugm-3,49.49336,R,ugm-3
02-01-2018,19:00,0.37623,R,ugm-3,18.23948,R,ugm-3,18.81636,R,ugm-3,45.45207,R,ugm-3
02-01-2018,20:00,0.59570,R,ugm-3,15.74292,R,ugm-3,16.65632,R,ugm-3,48.79487,R,ugm-3
02-01-2018,21:00,0.50164,R,ugm-3,9.26302,R,ugm-3,10.03219,R,ugm-3,57.62584,R,ugm-3
02-01-2018,22:00,0.34488,R,ugm-3,8.97537,R,ugm-3,9.50418,R,ugm-3,66.80606,R,ugm-3
02-01-2018,23:00,0.28217,R,ugm-3,5.51945,R,ugm-3,5.95211,R,ugm-3,67.35488,R,ugm-3
02-01-2018,24:00,0.09406,R,ugm-3,5.42389,R,ugm-3,5.56811,R,ugm-3,64.56090,R,ugm-3
03-01-2018,01:00,0.08362,R,ugm-3,4.09632,R,ugm-3,4.22453,R,ugm-3,72.97610,R,ugm-3
03-01-2018,02:00,0.12542,R,ugm-3,5.76044,R,ugm-3,5.95275,R,ugm-3,75.63703,R,ugm-3
03-01-2018,03:00,0.12542,R,ugm-3,4.75231,R,ugm-3,4.94462,R,ugm-3,75.43746,R,ugm-3
03-01-2018,04:00,0.03136,R,ugm-3,3.88842,R,ugm-3,3.93650,R,ugm-3,83.61983,R,ugm-3
03-01-2018,05:00,0.03136,R,ugm-3,3.40836,R,ugm-3,3.45643,R,ugm-3,83.07101,R,ugm-3
03-01-2018,06:00,0.09407,R,ugm-3,3.93628,R,ugm-3,4.08051,R,ugm-3,80.22714,R,ugm-3
03-01-2018,07:00,0.06271,R,ugm-3,4.08037,R,ugm-3,4.17653,R,ugm-3,80.12736,R,ugm-3
03-01-2018,08:00,0.06271,R,ugm-3,4.99248,R,ugm-3,5.08864,R,ugm-3,78.58069,R,ugm-3
03-01-2018,09:00,0.09407,R,ugm-3,6.00054,R,ugm-3,6.14477,R,ugm-3,76.48520,R,ugm-3
03-01-2018,10:00,0.21949,R,ugm-3,5.95224,R,ugm-3,6.28879,R,ugm-3,74.73897,R,ugm-3
03-01-2018,11:00,0.34491,R,ugm-3,5.90395,R,ugm-3,6.43281,R,ugm-3,74.09036,R,ugm-3
03-01-2018,12:00,1.59914,R,ugm-3,6.33312,R,ugm-3,8.78511,R,ugm-3,73.49165,R,ugm-3
03-01-2018,13:00,0.25085,R,ugm-3,4.75202,R,ugm-3,5.13665,R,ugm-3,76.48520,R,ugm-3
03-01-2018,14:00,0.25085,R,ugm-3,4.80003,R,ugm-3,5.18465,R,ugm-3,76.18585,R,ugm-3
03-01-2018,15:00,0.12542,R,ugm-3,4.12823,R,ugm-3,4.32054,R,ugm-3,75.48735,R,ugm-3
03-01-2018,16:00,0.12542,R,ugm-3,5.28038,R,ugm-3,5.47269,R,ugm-3,72.84305,R,ugm-3
03-01-2018,17:00,0.09407,R,ugm-3,7.00866,R,ugm-3,7.15290,R,ugm-3,71.29638,R,ugm-3
03-01-2018,18:00,0.25085,R,ugm-3,9.93667,R,ugm-3,10.32130,R,ugm-3,67.85380,R,ugm-3
03-01-2018,19:00,0.28220,R,ugm-3,12.76896,R,ugm-3,13.20166,R,ugm-3,65.35918,R,ugm-3
03-01-2018,20:00,0.21949,R,ugm-3,11.95300,R,ugm-3,12.28955,R,ugm-3,65.75832,R,ugm-3
03-01-2018,21:00,0.18813,R,ugm-3,10.36887,R,ugm-3,10.65734,R,ugm-3,68.70197,R,ugm-3
03-01-2018,22:00,0.12542,R,ugm-3,10.17699,R,ugm-3,10.36930,R,ugm-3,67.50455,R,ugm-3
03-01-2018,23:00,0.12542,R,ugm-3,12.81732,R,ugm-3,13.00964,R,ugm-3,62.96434,R,ugm-3
03-01-2018,24:00,0.25085,R,ugm-3,14.01719,R,ugm-3,14.40181,R,ugm-3,59.42197,R,ugm-3
04-01-2018,01:00,0.25087,R,ugm-3,12.48233,R,ugm-3,12.86699,R,ugm-3,62.39889,R,ugm-3
04-01-2018,02:00,0.25087,R,ugm-3,13.89065,R,ugm-3,14.27532,R,ugm-3,62.13279,R,ugm-3
04-01-2018,03:00,0.28223,R,ugm-3,11.37800,R,ugm-3,11.81075,R,ugm-3,61.41767,R,ugm-3
04-01-2018,04:00,0.34495,R,ugm-3,9.02531,R,ugm-3,9.55422,R,ugm-3,65.00993,R,ugm-3
04-01-2018,05:00,0.37631,R,ugm-3,8.49712,R,ugm-3,9.07411,R,ugm-3,64.96004,R,ugm-3
04-01-2018,06:00,0.40767,R,ugm-3,7.39279,R,ugm-3,8.01786,R,ugm-3,63.66283,R,ugm-3
04-01-2018,07:00,0.47038,R,ugm-3,10.12928,R,ugm-3,10.85052,R,ugm-3,61.26799,R,ugm-3
04-01-2018,08:00,0.75261,R,ugm-3,14.35362,R,ugm-3,15.50760,R,ugm-3,58.92304,R,ugm-3
04-01-2018,09:00,6.30312,R,ugm-3,13.33269,R,ugm-3,22.99734,R,ugm-3,62.51530,R,ugm-3
04-01-2018,10:00,10.69335,R,ugm-3,19.85218,R,ugm-3,36.24842,R,ugm-3,68.40262,R,ugm-3
04-01-2018,11:00,10.69335,R,ugm-3,14.42692,R,ugm-3,30.82316,R,ugm-3,75.58714,R,ugm-3
04-01-2018,12:00,1.66202,R,ugm-3,11.80695,R,ugm-3,14.35534,R,ugm-3,62.66498,R,ugm-3
04-01-2018,13:00,2.60278,R,ugm-3,19.77465,R,ugm-3,23.76552,R,ugm-3,47.94669,R,ugm-3
04-01-2018,14:00,1.12892,R,ugm-3,11.23203,R,ugm-3,12.96301,R,ugm-3,67.15531,R,ugm-3
04-01-2018,15:00,0.40767,R,ugm-3,8.40102,R,ugm-3,9.02610,R,ugm-3,74.28993,R,ugm-3
04-01-2018,16:00,0.12544,R,ugm-3,6.86531,R,ugm-3,7.05764,R,ugm-3,77.38327,R,ugm-3
04-01-2018,17:00,0.09408,R,ugm-3,6.91339,R,ugm-3,7.05764,R,ugm-3,75.23789,R,ugm-3
04-01-2018,18:00,0.09408,R,ugm-3,5.13698,R,ugm-3,5.28123,R,ugm-3,76.83445,R,ugm-3
04-01-2018,19:00,0.06272,R,ugm-3,6.86545,R,ugm-3,6.96162,R,ugm-3,73.49165,R,ugm-3
04-01-2018,20:00,0.18815,R,ugm-3,8.49754,R,ugm-3,8.78604,R,ugm-3,72.04477,R,ugm-3
04-01-2018,21:00,0.21951,R,ugm-3,14.25881,R,ugm-3,14.59539,R,ugm-3,62.86455,R,ugm-3
04-01-2018,22:00,0.25087,R,ugm-3,15.31498,R,ugm-3,15.69965,R,ugm-3,62.41552,R,ugm-3
04-01-2018,23:00,0.25087,R,ugm-3,13.25051,R,ugm-3,13.63517,R,ugm-3,62.41552,R,ugm-3
04-01-2018,24:00,0.28223,R,ugm-3,10.80187,R,ugm-3,11.23461,R,ugm-3,63.81251,R,ugm-3
05-01-2018,01:00,0.25090,R,ugm-3,7.16986,R,ugm-3,7.55456,R,ugm-3,73.10914,R,ugm-3
05-01-2018,02:00,0.29271,R,ugm-3,9.66661,R,ugm-3,10.11543,R,ugm-3,68.65208,R,ugm-3
05-01-2018,03:00,0.37634,R,ugm-3,9.74645,R,ugm-3,10.32350,R,ugm-3,65.90799,R,ugm-3
05-01-2018,04:00,0.72132,R,ugm-3,13.34689,R,ugm-3,14.45290,R,ugm-3,59.07272,R,ugm-3
05-01-2018,05:00,0.97222,R,ugm-3,12.09789,R,ugm-3,13.58861,R,ugm-3,55.08132,R,ugm-3
05-01-2018,06:00,1.22311,R,ugm-3,12.38542,R,ugm-3,14.26083,R,ugm-3,47.29809,R,ugm-3
05-01-2018,07:00,1.16039,R,ugm-3,14.30621,R,ugm-3,16.08545,R,ugm-3,49.99229,R,ugm-3
05-01-2018,08:00,0.94086,R,ugm-3,7.87253,R,ugm-3,9.31516,R,ugm-3,61.26799,R,ugm-3
05-01-2018,09:00,1.16039,R,ugm-3,12.67366,R,ugm-3,14.45290,R,ugm-3,59.02283,R,ugm-3
05-01-2018,10:00,1.16039,R,ugm-3,12.24151,R,ugm-3,14.02075,R,ugm-3,64.31143,R,ugm-3
05-01-2018,11:00,0.87813,R,ugm-3,13.92273,R,ugm-3,15.26917,R,ugm-3,67.80391,R,ugm-3
05-01-2018,12:00,0.68996,R,ugm-3,11.28226,R,ugm-3,12.34018,R,ugm-3,72.49380,R,ugm-3
05-01-2018,13:00,1.16039,R,ugm-3,10.32086,R,ugm-3,12.10010,R,ugm-3,74.58929,R,ugm-3
05-01-2018,14:00,0.94086,R,ugm-3,10.12930,R,ugm-3,11.57192,R,ugm-3,74.93854,R,ugm-3
05-01-2018,15:00,0.53315,R,ugm-3,8.97783,R,ugm-3,9.79532,R,ugm-3,76.78456,R,ugm-3
05-01-2018,16:00,0.18817,R,ugm-3,11.61951,R,ugm-3,11.90804,R,ugm-3,71.24649,R,ugm-3
05-01-2018,17:00,0.21953,R,ugm-3,12.67580,R,ugm-3,13.01241,R,ugm-3,68.50240,R,ugm-3
05-01-2018,18:00,0.25090,R,ugm-3,13.25192,R,ugm-3,13.63662,R,ugm-3,65.90799,R,ugm-3
05-01-2018,19:00,0.37634,R,ugm-3,15.26832,R,ugm-3,15.84537,R,ugm-3,58.02498,R,ugm-3
05-01-2018,20:00,0.56451,R,ugm-3,10.32222,R,ugm-3,11.18779,R,ugm-3,62.76477,R,ugm-3
05-01-2018,21:00,0.84677,R,ugm-3,18.38831,R,ugm-3,19.68667,R,ugm-3,48.59530,R,ugm-3
05-01-2018,22:00,1.09767,R,ugm-3,25.54216,R,ugm-3,27.22523,R,ugm-3,38.31744,R,ugm-3
05-01-2018,23:00,1.37992,R,ugm-3,35.19279,R,ugm-3,37.30865,R,ugm-3,27.69034,R,ugm-3
05-01-2018,24:00,1.78763,R,ugm-3,44.21893,R,ugm-3,46.95992,R,ugm-3,17.41248,R,ugm-3
06-01-2018,01:00,3.42923,R,ugm-3,43.46762,R,ugm-3,48.72571,R,ugm-3,13.37119,R,ugm-3
06-01-2018,02:00,2.34192,R,ugm-3,36.23485,R,ugm-3,39.82574,R,ugm-3,13.30467,R,ugm-3
06-01-2018,03:00,3.07376,R,ugm-3,30.39060,R,ugm-3,35.10364,R,ugm-3,10.77678,R,ugm-3
06-01-2018,04:00,2.25828,R,ugm-3,26.26260,R,ugm-3,29.72524,R,ugm-3,9.03054,R,ugm-3
06-01-2018,05:00,2.19555,R,ugm-3,20.54820,R,ugm-3,23.91465,R,ugm-3,17.01334,R,ugm-3
06-01-2018,06:00,1.44279,R,ugm-3,19.92562,R,ugm-3,22.13786,R,ugm-3,19.40818,R,ugm-3
06-01-2018,07:00,1.38006,R,ugm-3,26.40865,R,ugm-3,28.52471,R,ugm-3,11.57506,R,ugm-3
06-01-2018,08:00,1.41142,R,ugm-3,26.64869,R,ugm-3,28.81284,R,ugm-3,12.32345,R,ugm-3
06-01-2018,09:00,2.19555,R,ugm-3,24.72606,R,ugm-3,28.09252,R,ugm-3,15.16732,R,ugm-3
06-01-2018,10:00,3.66970,R,ugm-3,20.35278,R,ugm-3,25.97957,R,ugm-3,20.15657,R,ugm-3
06-01-2018,11:00,4.73611,R,ugm-3,18.66962,R,ugm-3,25.93155,R,ugm-3,24.09808,R,ugm-3
06-01-2018,12:00,4.61065,R,ugm-3,18.18969,R,ugm-3,25.25925,R,ugm-3,27.54066,R,ugm-3
06-01-2018,13:00,3.92062,R,ugm-3,17.61500,R,ugm-3,23.62653,R,ugm-3,35.32389,R,ugm-3
06-01-2018,14:00,2.63466,R,ugm-3,15.74507,R,ugm-3,19.78481,R,ugm-3,42.40863,R,ugm-3
06-01-2018,15:00,0.84685,R,ugm-3,7.10525,R,ugm-3,8.40374,R,ugm-3,56.62799,R,ugm-3
06-01-2018,16:00,0.47047,R,ugm-3,5.32931,R,ugm-3,6.05070,R,ugm-3,44.90325,R,ugm-3
06-01-2018,17:00,0.28228,R,ugm-3,4.46535,R,ugm-3,4.89818,R,ugm-3,40.86196,R,ugm-3
06-01-2018,18:00,0.18819,R,ugm-3,4.36952,R,ugm-3,4.65808,R,ugm-3,46.05078,R,ugm-3
06-01-2018,19:00,0.12546,R,ugm-3,5.61822,R,ugm-3,5.81059,R,ugm-3,47.99659,R,ugm-3
06-01-2018,20:00,0.15682,R,ugm-3,5.18596,R,ugm-3,5.42642,R,ugm-3,50.19186,R,ugm-3
06-01-2018,21:00,0.09410,R,ugm-3,4.08161,R,ugm-3,4.22588,R,ugm-3,56.92734,R,ugm-3
06-01-2018,22:00,0.09410,R,ugm-3,3.74546,R,ugm-3,3.88973,R,ugm-3,62.36563,R,ugm-3
06-01-2018,23:00,0.15682,R,ugm-3,4.46564,R,ugm-3,4.70610,R,ugm-3,59.67143,R,ugm-3
06-01-2018,24:00,0.25092,R,ugm-3,4.56147,R,ugm-3,4.94620,R,ugm-3,56.07917,R,ugm-3
07-01-2018,01:00,0.25094,R,ugm-3,4.09770,R,ugm-3,4.48248,R,ugm-3,52.68648,R,ugm-3
07-01-2018,02:00,0.25094,R,ugm-3,4.67402,R,ugm-3,5.05879,R,ugm-3,55.81308,R,ugm-3
07-01-2018,03:00,0.25094,R,ugm-3,4.08169,R,ugm-3,4.46647,R,ugm-3,55.87960,R,ugm-3
07-01-2018,04:00,0.25094,R,ugm-3,3.98564,R,ugm-3,4.37041,R,ugm-3,55.63014,R,ugm-3
07-01-2018,05:00,0.31368,R,ugm-3,4.46576,R,ugm-3,4.94673,R,ugm-3,51.93809,R,ugm-3
07-01-2018,06:00,0.21958,R,ugm-3,5.95479,R,ugm-3,6.29147,R,ugm-3,43.50626,R,ugm-3
07-01-2018,07:00,0.15684,R,ugm-3,5.18651,R,ugm-3,5.42700,R,ugm-3,39.66454,R,ugm-3
07-01-2018,08:00,0.03137,R,ugm-3,3.64995,R,ugm-3,3.69804,R,ugm-3,48.69508,R,ugm-3
07-01-2018,09:00,0.03137,R,ugm-3,4.94666,R,ugm-3,4.99476,R,ugm-3,50.04218,R,ugm-3
07-01-2018,10:00,0.15684,R,ugm-3,3.79374,R,ugm-3,4.03423,R,ugm-3,54.88175,R,ugm-3
07-01-2018,11:00,0.18821,R,ugm-3,3.45749,R,ugm-3,3.74607,R,ugm-3,59.32218,R,ugm-3
07-01-2018,12:00,0.47052,R,ugm-3,4.36936,R,ugm-3,5.09081,R,ugm-3,56.02928,R,ugm-3
07-01-2018,13:00,0.28231,R,ugm-3,3.50530,R,ugm-3,3.93817,R,ugm-3,62.26584,R,ugm-3
07-01-2018,14:00,0.28231,R,ugm-3,3.93754,R,ugm-3,4.37041,R,ugm-3,64.86025,R,ugm-3
07-01-2018,15:00,0.18821,R,ugm-3,3.36143,R,ugm-3,3.65002,R,ugm-3,69.15101,R,ugm-3
07-01-2018,16:00,0.18821,R,ugm-3,3.69762,R,ugm-3,3.98620,R,ugm-3,70.74757,R,ugm-3
07-01-2018,17:00,0.12547,R,ugm-3,5.33066,R,ugm-3,5.52305,R,ugm-3,68.30283,R,ugm-3
07-01-2018,18:00,0.12547,R,ugm-3,4.75434,R,ugm-3,4.94673,R,ugm-3,66.40692,R,ugm-3
07-01-2018,19:00,0.12547,R,ugm-3,5.71487,R,ugm-3,5.90726,R,ugm-3,62.66498,R,ugm-3
07-01-2018,20:00,0.09410,R,ugm-3,6.96363,R,ugm-3,7.10793,R,ugm-3,60.71917,R,ugm-3
07-01-2018,21:00,0.00000,R,ugm-3,5.37897,R,ugm-3,5.37897,R,ugm-3,60.02068,R,ugm-3
07-01-2018,22:00,0.06274,R,ugm-3,7.29989,R,ugm-3,7.39608,R,ugm-3,53.18541,R,ugm-3
07-01-2018,23:00,0.12547,R,ugm-3,7.34778,R,ugm-3,7.54016,R,ugm-3,51.08992,R,ugm-3
07-01-2018,24:00,0.12547,R,ugm-3,8.11620,R,ugm-3,8.30859,R,ugm-3,48.84476,R,ugm-3
08-01-2018,01:00,0.12549,R,ugm-3,8.70946,R,ugm-3,8.90186,R,ugm-3,48.42899,R,ugm-3
08-01-2018,02:00,0.25097,R,ugm-3,11.78320,R,ugm-3,12.16801,R,ugm-3,45.16934,R,ugm-3
08-01-2018,03:00,0.34508,R,ugm-3,8.40477,R,ugm-3,8.93388,R,ugm-3,47.39788,R,ugm-3
08-01-2018,04:00,0.37645,R,ugm-3,7.01178,R,ugm-3,7.58900,R,ugm-3,47.14841,R,ugm-3
08-01-2018,05:00,0.37645,R,ugm-3,6.81965,R,ugm-3,7.39687,R,ugm-3,47.09852,R,ugm-3
08-01-2018,06:00,0.37645,R,ugm-3,7.20390,R,ugm-3,7.78113,R,ugm-3,44.05508,R,ugm-3
08-01-2018,07:00,0.53331,R,ugm-3,9.55711,R,ugm-3,10.37483,R,ugm-3,38.41723,R,ugm-3
08-01-2018,08:00,0.81565,R,ugm-3,11.33365,R,ugm-3,12.58429,R,ugm-3,34.22626,R,ugm-3
08-01-2018,09:00,2.35283,R,ugm-3,11.52234,R,ugm-3,15.12996,R,ugm-3,33.57765,R,ugm-3
08-01-2018,10:00,4.67429,R,ugm-3,14.35103,R,ugm-3,21.51817,R,ugm-3,31.93120,R,ugm-3
08-01-2018,11:00,2.32146,R,ugm-3,16.66179,R,ugm-3,20.22132,R,ugm-3,27.19141,R,ugm-3
08-01-2018,12:00,12.83077,R,ugm-3,24.85175,R,ugm-3,44.52532,R,ugm-3,20.80517,R,ugm-3
08-01-2018,13:00,18.82265,R,ugm-3,29.97776,R,ugm-3,58.83875,R,ugm-3,19.00904,R,ugm-3
08-01-2018,14:00,10.91714,R,ugm-3,27.40169,R,ugm-3,44.14107,R,ugm-3,19.80732,R,ugm-3
08-01-2018,15:00,7.65454,R,ugm-3,27.26488,R,ugm-3,39.00169,R,ugm-3,18.65980,R,ugm-3
08-01-2018,16:00,2.32146,R,ugm-3,21.03267,R,ugm-3,24.59220,R,ugm-3,22.90066,R,ugm-3
08-01-2018,17:00,1.75678,R,ugm-3,23.77174,R,ugm-3,26.46543,R,ugm-3,19.50797,R,ugm-3
08-01-2018,18:00,1.72541,R,ugm-3,18.53636,R,ugm-3,21.18195,R,ugm-3,22.95055,R,ugm-3
08-01-2018,19:00,1.63130,R,ugm-3,19.88146,R,ugm-3,22.38274,R,ugm-3,21.70324,R,ugm-3
08-01-2018,20:00,1.66267,R,ugm-3,21.41840,R,ugm-3,23.96779,R,ugm-3,20.35614,R,ugm-3
08-01-2018,21:00,1.69404,R,ugm-3,22.71518,R,ugm-3,25.31267,R,ugm-3,18.16087,R,ugm-3
08-01-2018,22:00,1.72541,R,ugm-3,24.39622,R,ugm-3,27.04181,R,ugm-3,16.16517,R,ugm-3
08-01-2018,23:00,1.69404,R,ugm-3,24.78054,R,ugm-3,27.37803,R,ugm-3,15.16732,R,ugm-3
08-01-2018,24:00,1.75678,R,ugm-3,23.96386,R,ugm-3,26.65756,R,ugm-3,16.06539,R,ugm-3
09-01-2018,01:00,1.84062,R,ugm-3,26.44815,R,ugm-3,29.27039,R,ugm-3,12.37334,R,ugm-3
09-01-2018,02:00,2.04978,R,ugm-3,25.29481,R,ugm-3,28.43776,R,ugm-3,11.24244,R,ugm-3
09-01-2018,03:00,2.00795,R,ugm-3,26.65594,R,ugm-3,29.73475,R,ugm-3,11.22581,R,ugm-3
09-01-2018,04:00,2.00795,R,ugm-3,25.35895,R,ugm-3,28.43776,R,ugm-3,12.87227,R,ugm-3
09-01-2018,05:00,2.00795,R,ugm-3,26.41576,R,ugm-3,29.49457,R,ugm-3,11.52517,R,ugm-3
09-01-2018,06:00,1.97657,R,ugm-3,27.90497,R,ugm-3,30.93567,R,ugm-3,8.98065,R,ugm-3
09-01-2018,07:00,2.50993,R,ugm-3,31.65065,R,ugm-3,35.49916,R,ugm-3,4.54022,R,ugm-3
09-01-2018,08:00,2.44718,R,ugm-3,30.93024,R,ugm-3,34.68253,R,ugm-3,4.73979,R,ugm-3
09-01-2018,09:00,10.44759,R,ugm-3,29.99979,R,ugm-3,46.01921,R,ugm-3,5.18882,R,ugm-3
09-01-2018,10:00,8.75339,R,ugm-3,26.64098,R,ugm-3,40.06265,R,ugm-3,7.38409,R,ugm-3
09-01-2018,11:00,11.51431,R,ugm-3,30.23761,R,ugm-3,47.89264,R,ugm-3,5.33850,R,ugm-3
09-01-2018,12:00,10.16522,R,ugm-3,27.98287,R,ugm-3,43.56933,R,ugm-3,7.63355,R,ugm-3
09-01-2018,13:00,14.71448,R,ugm-3,28.93351,R,ugm-3,51.49540,R,ugm-3,6.18667,R,ugm-3
09-01-2018,14:00,12.83203,R,ugm-3,28.79358,R,ugm-3,48.46908,R,ugm-3,6.08689,R,ugm-3
09-01-2018,15:00,13.30264,R,ugm-3,31.19437,R,ugm-3,51.59147,R,ugm-3,3.89162,R,ugm-3
09-01-2018,16:00,18.73037,R,ugm-3,33.15184,R,ugm-3,61.87134,R,ugm-3,1.69635,R,ugm-3
09-01-2018,17:00,24.97382,R,ugm-3,32.89780,R,ugm-3,71.19046,R,ugm-3,1.29721,R,ugm-3
09-01-2018,18:00,9.28675,R,ugm-3,31.05917,R,ugm-3,45.29866,R,ugm-3,1.04774,R,ugm-3
09-01-2018,19:00,5.45910,R,ugm-3,29.43442,R,ugm-3,37.80492,R,ugm-3,1.39699,R,ugm-3
09-01-2018,20:00,2.44718,R,ugm-3,22.37970,R,ugm-3,26.13199,R,ugm-3,9.32990,R,ugm-3
09-01-2018,21:00,2.29031,R,ugm-3,19.49784,R,ugm-3,23.00960,R,ugm-3,16.16517,R,ugm-3
09-01-2018,22:00,2.25894,R,ugm-3,25.35839,R,ugm-3,28.82205,R,ugm-3,14.76818,R,ugm-3
09-01-2018,23:00,2.13344,R,ugm-3,24.44597,R,ugm-3,27.71721,R,ugm-3,12.42323,R,ugm-3
09-01-2018,24:00,2.35306,R,ugm-3,23.91708,R,ugm-3,27.52506,R,ugm-3,9.47958,R,ugm-3
10-01-2018,01:00,1.63162,R,ugm-3,16.77903,R,ugm-3,19.28080,R,ugm-3,17.16302,R,ugm-3
10-01-2018,02:00,1.67345,R,ugm-3,21.90340,R,ugm-3,24.46933,R,ugm-3,10.84330,R,ugm-3
10-01-2018,03:00,1.66299,R,ugm-3,22.47993,R,ugm-3,25.02982,R,ugm-3,10.47743,R,ugm-3
10-01-2018,04:00,1.63162,R,ugm-3,21.27895,R,ugm-3,23.78073,R,ugm-3,12.37334,R,ugm-3
10-01-2018,05:00,1.53748,R,ugm-3,19.06923,R,ugm-3,21.42668,R,ugm-3,15.56646,R,ugm-3
10-01-2018,06:00,1.44335,R,ugm-3,15.32217,R,ugm-3,17.53528,R,ugm-3,21.15442,R,ugm-3
10-01-2018,07:00,1.31784,R,ugm-3,11.14281,R,ugm-3,13.16347,R,ugm-3,37.56905,R,ugm-3
10-01-2018,08:00,1.03545,R,ugm-3,8.40504,R,ugm-3,9.99271,R,ugm-3,59.97079,R,ugm-3
10-01-2018,09:00,0.87856,R,ugm-3,12.29678,R,ugm-3,13.64389,R,ugm-3,60.17036,R,ugm-3
10-01-2018,10:00,0.90994,R,ugm-3,22.33746,R,ugm-3,23.73268,R,ugm-3,53.98369,R,ugm-3
10-01-2018,11:00,2.91808,R,ugm-3,24.78317,R,ugm-3,29.25750,R,ugm-3,48.64519,R,ugm-3
10-01-2018,12:00,4.20455,R,ugm-3,28.19131,R,ugm-3,34.63819,R,ugm-3,43.60605,R,ugm-3
10-01-2018,13:00,3.29461,R,ugm-3,21.22724,R,ugm-3,26.27890,R,ugm-3,51.93809,R,ugm-3
10-01-2018,14:00,2.91808,R,ugm-3,21.94870,R,ugm-3,26.42303,R,ugm-3,51.23960,R,ugm-3
10-01-2018,15:00,1.31784,R,ugm-3,16.04308,R,ugm-3,18.06374,R,ugm-3,57.27659,R,ugm-3
10-01-2018,16:00,1.12958,R,ugm-3,27.76571,R,ugm-3,29.49771,R,ugm-3,41.76002,R,ugm-3
10-01-2018,17:00,1.06683,R,ugm-3,47.41497,R,ugm-3,49.05075,R,ugm-3,21.80302,R,ugm-3
10-01-2018,18:00,0.97269,R,ugm-3,43.52379,R,ugm-3,45.01523,R,ugm-3,23.84862,R,ugm-3
10-01-2018,19:00,1.28647,R,ugm-3,48.56749,R,ugm-3,50.54005,R,ugm-3,18.06109,R,ugm-3
10-01-2018,20:00,1.38060,R,ugm-3,49.19183,R,ugm-3,51.30872,R,ugm-3,14.06969,R,ugm-3
10-01-2018,21:00,1.78850,R,ugm-3,54.37945,R,ugm-3,57.12178,R,ugm-3,8.53162,R,ugm-3
10-01-2018,22:00,2.22778,R,ugm-3,57.88554,R,ugm-3,61.30143,R,ugm-3,4.83957,R,ugm-3
10-01-2018,23:00,2.22778,R,ugm-3,53.80198,R,ugm-3,57.21787,R,ugm-3,6.28646,R,ugm-3
10-01-2018,24:00,2.94946,R,ugm-3,51.30221,R,ugm-3,55.82465,R,ugm-3,4.93936,R,ugm-3
11-01-2018,01:00,3.43091,R,ugm-3,49.96135,R,ugm-3,55.22201,R,ugm-3,2.92703,R,ugm-3
11-01-2018,02:00,2.63594,R,ugm-3,47.78496,R,ugm-3,51.82669,R,ugm-3,4.85620,R,ugm-3
11-01-2018,03:00,2.73009,R,ugm-3,38.14333,R,ugm-3,42.32940,R,ugm-3,8.08259,R,ugm-3
11-01-2018,04:00,2.69870,R,ugm-3,31.99338,R,ugm-3,36.13134,R,ugm-3,6.93506,R,ugm-3
11-01-2018,05:00,2.19662,R,ugm-3,31.85034,R,ugm-3,35.21844,R,ugm-3,4.29076,R,ugm-3
11-01-2018,06:00,3.48321,R,ugm-3,37.61316,R,ugm-3,42.95401,R,ugm-3,1.24731,R,ugm-3
11-01-2018,07:00,5.99363,R,ugm-3,35.97406,R,ugm-3,45.16417,R,ugm-3,0.94796,R,ugm-3
11-01-2018,08:00,11.20276,R,ugm-3,34.90561,R,ugm-3,52.08294,R,ugm-3,0.89807,R,ugm-3
11-01-2018,09:00,11.67347,R,ugm-3,28.27409,R,ugm-3,46.17316,R,ugm-3,1.19742,R,ugm-3
11-01-2018,10:00,17.41606,R,ugm-3,31.96112,R,ugm-3,58.66537,R,ugm-3,1.99570,R,ugm-3
11-01-2018,11:00,15.65876,R,ugm-3,29.17825,R,ugm-3,53.18802,R,ugm-3,3.64215,R,ugm-3
11-01-2018,12:00,9.35133,R,ugm-3,26.26121,R,ugm-3,40.59971,R,ugm-3,8.48173,R,ugm-3
11-01-2018,13:00,9.35133,R,ugm-3,25.63660,R,ugm-3,39.97509,R,ugm-3,7.68345,R,ugm-3
11-01-2018,14:00,7.31161,R,ugm-3,23.19067,R,ugm-3,34.40165,R,ugm-3,10.42753,R,ugm-3
11-01-2018,15:00,3.76564,R,ugm-3,21.13242,R,ugm-3,26.90631,R,ugm-3,12.17377,R,ugm-3
11-01-2018,16:00,3.29493,R,ugm-3,22.67096,R,ugm-3,27.72311,R,ugm-3,9.13033,R,ugm-3
11-01-2018,17:00,3.23217,R,ugm-3,26.94728,R,ugm-3,31.90320,R,ugm-3,4.09119,R,ugm-3
11-01-2018,18:00,3.16941,R,ugm-3,29.83023,R,ugm-3,34.68993,R,ugm-3,3.94151,R,ugm-3
11-01-2018,19:00,4.48738,R,ugm-3,29.63516,R,ugm-3,36.51571,R,ugm-3,1.44688,R,ugm-3
11-01-2018,20:00,8.28440,R,ugm-3,30.92410,R,ugm-3,43.62667,R,ugm-3,1.34710,R,ugm-3
11-01-2018,21:00,11.98727,R,ugm-3,30.91599,R,ugm-3,49.29621,R,ugm-3,1.29721,R,ugm-3
11-01-2018,22:00,11.42242,R,ugm-3,31.68598,R,ugm-3,49.20012,R,ugm-3,1.04774,R,ugm-3
11-01-2018,23:00,15.47048,R,ugm-3,34.70406,R,ugm-3,58.42514,R,ugm-3,0.99785,R,ugm-3
11-01-2018,24:00,4.04806,R,ugm-3,26.99354,R,ugm-3,33.20047,R,ugm-3,13.96990,R,ugm-3
12-01-2018,01:00,2.38513,R,ugm-3,12.48835,R,ugm-3,16.14551,R,ugm-3,34.32604,R,ugm-3
12-01-2018,02:00,2.42698,R,ugm-3,12.23198,R,ugm-3,15.95330,R,ugm-3,35.85608,R,ugm-3
12-01-2018,03:00,2.41652,R,ugm-3,12.96881,R,ugm-3,16.67408,R,ugm-3,29.53636,R,ugm-3
12-01-2018,04:00,2.38513,R,ugm-3,12.68056,R,ugm-3,16.33772,R,ugm-3,28.48862,R,ugm-3
12-01-2018,05:00,2.25960,R,ugm-3,13.59382,R,ugm-3,17.05850,R,ugm-3,25.59485,R,ugm-3
12-01-2018,06:00,4.07984,R,ugm-3,24.83405,R,ugm-3,31.08972,R,ugm-3,14.71829,R,ugm-3
12-01-2018,07:00,12.39643,R,ugm-3,33.94584,R,ugm-3,52.95342,R,ugm-3,7.63355,R,ugm-3
12-01-2018,08:00,2.57344,R,ugm-3,27.86462,R,ugm-3,31.81050,R,ugm-3,13.32130,R,ugm-3
12-01-2018,09:00,4.04845,R,ugm-3,35.16532,R,ugm-3,41.37287,R,ugm-3,10.02839,R,ugm-3
12-01-2018,10:00,7.21817,R,ugm-3,35.20647,R,ugm-3,46.27418,R,ugm-3,10.92646,R,ugm-3
12-01-2018,11:00,5.24102,R,ugm-3,22.47697,R,ugm-3,30.51309,R,ugm-3,33.47787,R,ugm-3
12-01-2018,12:00,4.29952,R,ugm-3,15.07900,R,ugm-3,21.67150,R,ugm-3,44.45422,R,ugm-3
12-01-2018,13:00,2.88727,R,ugm-3,12.72752,R,ugm-3,17.15460,R,ugm-3,51.78842,R,ugm-3
12-01-2018,14:00,2.51067,R,ugm-3,14.02575,R,ugm-3,17.87538,R,ugm-3,56.97724,R,ugm-3
12-01-2018,15:00,3.23249,R,ugm-3,13.25534,R,ugm-3,18.21175,R,ugm-3,56.37853,R,ugm-3
12-01-2018,16:00,,,,,,,,,,,,
12-01-2018,17:00,1.85162,R,ugm-3,12.20120,R,ugm-3,15.04031,R,ugm-3,51.08992,R,ugm-3
12-01-2018,18:00,2.03992,R,ugm-3,17.63068,R,ugm-3,20.75851,R,ugm-3,37.16991,R,ugm-3
12-01-2018,19:00,2.07130,R,ugm-3,12.96956,R,ugm-3,16.14551,R,ugm-3,39.96389,R,ugm-3
12-01-2018,20:00,1.91439,R,ugm-3,12.34522,R,ugm-3,15.28057,R,ugm-3,40.86196,R,ugm-3
12-01-2018,21:00,2.19684,R,ugm-3,14.89137,R,ugm-3,18.25980,R,ugm-3,41.85981,R,ugm-3